Date String (YYYY-MM-DD hh:mm:ss) UTC,Instrument flags,Ambient pressure (hPa),Sample flow (lpm),Bypass flow (lpm),Sample temperature (°C),Ambient temperature (°C),ASC tube jacket temperature (°C),LED temperature (°C),Box temperature (°C),Sample RH (%),Span deviation,Mass concentration (μg/m³),Mass concentration (μg/m³),Mass concentration (μg/m³)
DateTimeUTC,F1_M11,P_M11,Q1_M11,Q2_M11,T1_M11,T2_M11,T3_M11,T4_M11,T5_M11,U1_M11,ZSPAN_M11,X2_M11,X0_M11,X1_M11
2023-04-13 03:00:00,,0819.9,5.00,0.00,30.2,28.5,00.0,38.6,31.7,10.5,0000.0,0003.22,0009.87,0002.14
2023-04-13 03:01:00,,0819.8,5.00,0.00,30.2,28.5,00.0,38.6,31.7,10.4,0000.0,0003.18,0010.05,0002.14
2023-04-13 03:02:00,,0819.9,5.00,0.00,30.2,28.5,00.0,38.6,31.7,10.3,0000.0,0003.18,0009.35,0002.14
2023-04-13 03:03:00,,0819.8,5.01,0.00,30.2,28.5,00.0,38.6,31.7,10.3,0000.0,0003.17,0009.07,0002.15
2023-04-13 03:04:00,,0819.7,5.00,0.00,30.2,28.5,00.0,38.6,31.7,10.3,0000.0,0003.20,0009.09,0002.17
2023-04-13 03:05:00,,0819.8,5.00,0.00,30.2,28.5,00.0,38.6,31.7,10.3,0000.0,0003.19,0009.11,0002.18
2023-04-13 03:06:00,,0819.7,5.02,0.00,30.2,28.5,00.0,38.6,31.7,10.4,0000.0,0003.18,0009.03,0002.18
2023-04-13 03:07:00,,0819.9,5.00,0.00,30.2,28.5,00.0,38.6,31.7,10.4,0000.0,0003.19,0008.98,0002.18
2023-04-13 03:08:00,,0819.9,5.01,0.00,30.1,28.5,00.0,38.6,31.7,10.4,0000.0,0003.20,0008.48,0002.19
2023-04-13 03:09:00,,0819.9,5.00,0.00,30.1,28.5,00.0,38.6,31.7,10.4,0000.0,0003.22,0008.33,0002.19
2023-04-13 03:10:00,,0819.9,5.00,0.00,30.1,28.5,00.0,38.6,31.7,10.4,0000.0,0003.24,0008.04,0002.18
2023-04-13 03:11:00,,0819.8,5.00,0.00,30.1,28.5,00.0,38.6,31.7,10.4,0000.0,0003.25,0007.57,0002.17
2023-04-13 03:12:00,,0819.9,5.01,0.00,30.1,28.5,00.0,38.6,31.7,10.4,0000.0,0003.22,0006.89,0002.15
2023-04-13 03:13:00,,0819.9,5.00,0.00,30.1,28.5,00.0,38.6,31.7,10.4,0000.0,0003.20,0006.82,0002.15
2023-04-13 03:14:00,,0819.9,5.00,0.00,30.2,28.5,00.0,38.6,31.7,10.4,0000.0,0003.20,0007.51,0002.16
2023-04-13 03:15:00,,0819.8,5.00,0.00,30.1,28.5,00.0,38.6,31.7,10.4,0000.0,0003.17,0007.46,0002.14
2023-04-13 03:16:00,,0819.9,5.00,0.00,30.1,28.5,00.0,38.6,31.7,10.4,0000.0,0003.15,0007.44,0002.14
2023-04-13 03:17:00,,0820.0,4.99,0.00,30.2,28.5,00.0,38.6,31.7,10.5,0000.0,0003.18,0007.79,0002.14
2023-04-13 03:18:00,,0819.9,4.99,0.00,30.2,28.5,00.0,38.6,31.7,10.5,0000.0,0003.17,0007.65,0002.14
2023-04-13 03:19:00,,0819.9,5.01,0.00,30.2,28.5,00.0,38.6,31.7,10.4,0000.0,0003.17,0007.61,0002.14
2023-04-13 03:20:00,,0819.9,5.01,0.00,30.2,28.6,00.0,38.6,31.7,10.4,0000.0,0003.15,0007.73,0002.14
2023-04-13 03:21:00,,0820.0,5.01,0.00,30.2,28.6,00.0,38.6,31.8,10.5,0000.0,0003.15,0007.77,0002.15
2023-04-13 03:22:00,,0820.1,5.00,0.00,30.2,28.6,00.0,38.6,31.7,10.5,0000.0,0003.14,0007.89,0002.16
2023-04-13 03:23:00,,0819.9,5.02,0.00,30.2,28.6,00.0,38.6,31.7,10.5,0000.0,0003.17,0007.87,0002.17
2023-04-13 03:24:00,,0819.9,5.01,0.00,30.2,28.6,00.0,38.6,31.7,10.5,0000.0,0003.17,0007.76,0002.18
2023-04-13 03:25:00,,0820.0,5.00,0.00,30.2,28.6,00.0,38.6,31.7,10.5,0000.0,0003.17,0007.11,0002.17
2023-04-13 03:26:00,,0819.9,4.99,0.00,30.2,28.6,00.0,38.6,31.8,10.5,0000.0,0003.14,0006.95,0002.17
2023-04-13 03:27:00,,0820.1,5.00,0.00,30.2,28.6,00.0,38.6,31.8,10.5,0000.0,0003.13,0006.89,0002.17
2023-04-13 03:28:00,,0820.0,5.00,0.00,30.2,28.6,00.0,38.6,31.7,10.4,0000.0,0003.06,0006.52,0002.17
2023-04-13 03:29:00,,0820.0,5.01,0.00,30.2,28.6,00.0,38.6,31.7,10.5,0000.0,0003.05,0006.98,0002.16
2023-04-13 03:30:00,,0820.0,5.00,0.00,30.2,28.6,00.0,38.6,31.7,10.5,0000.0,0003.09,0007.30,0002.16
2023-04-13 03:31:00,,0820.0,5.00,0.00,30.2,28.6,00.0,38.6,31.7,10.4,0000.0,0003.10,0007.52,0002.16
2023-04-13 03:32:00,,0820.1,4.99,0.00,30.2,28.6,00.0,38.6,31.7,10.5,0000.0,0003.08,0007.24,0002.17
2023-04-13 03:33:00,,0820.1,4.99,0.00,30.2,28.6,00.0,38.6,31.7,10.5,0000.0,0003.05,0007.13,0002.17
2023-04-13 03:34:00,,0820.1,5.00,0.00,30.1,28.5,00.0,38.6,31.7,10.5,0000.0,0003.03,0007.05,0002.16
2023-04-13 03:35:00,,0820.1,5.01,0.00,30.1,28.5,00.0,38.6,31.7,10.6,0000.0,0003.06,0007.31,0002.16
2023-04-13 03:36:00,,0820.1,5.00,0.00,30.1,28.6,00.0,38.6,31.7,10.5,0000.0,0003.04,0007.29,0002.15
2023-04-13 03:37:00,,0820.1,4.99,0.00,30.1,28.6,00.0,38.6,31.7,10.5,0000.0,0003.04,0007.33,0002.15
2023-04-13 03:38:00,,0820.0,4.99,0.00,30.1,28.6,00.0,38.6,31.7,10.5,0000.0,0003.09,0008.20,0002.15
2023-04-13 03:39:00,,0820.0,4.99,0.00,30.2,28.6,00.0,38.6,31.7,10.5,0000.0,0003.14,0009.13,0002.15
2023-04-13 03:40:00,,0820.0,5.01,0.00,30.2,28.6,00.0,38.6,31.7,10.4,0000.0,0003.19,0008.75,0002.14
2023-04-13 03:41:00,,0820.0,5.00,0.00,30.2,28.6,00.0,38.6,31.8,10.4,0000.0,0003.16,0008.50,0002.13
2023-04-13 03:42:00,,0819.9,5.01,0.00,30.2,28.7,00.0,38.6,31.8,10.4,0000.0,0003.12,0008.30,0002.13
2023-04-13 03:43:00,,0820.1,5.01,0.00,30.2,28.7,00.0,38.6,31.7,10.4,0000.0,0003.12,0008.90,0002.12
2023-04-13 03:44:00,,0819.9,5.00,0.00,30.2,28.7,00.0,38.6,31.7,10.4,0000.0,0003.14,0008.97,0002.12
2023-04-13 03:45:00,,0819.9,5.00,0.00,30.2,28.7,00.0,38.6,31.7,10.3,0000.0,0003.16,0009.01,0002.12
2023-04-13 03:46:00,,0820.0,5.01,0.00,30.2,28.7,00.0,38.6,31.7,10.3,0000.0,0003.15,0008.90,0002.11
2023-04-13 03:47:00,,0820.0,5.02,0.00,30.2,28.7,00.0,38.6,31.7,10.4,0000.0,0003.13,0008.86,0002.11
2023-04-13 03:48:00,,0820.0,5.00,0.00,30.2,28.7,00.0,38.6,31.7,10.5,0000.0,0003.13,0008.96,0002.11
2023-04-13 03:49:00,,0820.0,5.00,0.00,30.2,28.7,00.0,38.6,31.7,10.5,0000.0,0003.13,0008.99,0002.11
2023-04-13 03:50:00,,0820.1,5.00,0.00,30.2,28.7,00.0,38.6,31.7,10.5,0000.0,0003.13,0008.30,0002.10
2023-04-13 03:51:00,,0820.0,5.00,0.00,30.2,28.7,00.0,38.6,31.7,10.5,0000.0,0003.14,0008.81,0002.13
2023-04-13 03:52:00,,0820.0,5.01,0.00,30.2,28.7,00.0,38.6,31.8,10.6,0000.0,0003.14,0008.75,0002.13
2023-04-13 03:53:00,,0820.1,5.00,0.00,30.2,28.7,00.0,38.6,31.8,10.6,0000.0,0003.16,0008.85,0002.13
2023-04-13 03:54:00,,0820.2,5.00,0.00,30.2,28.7,00.0,38.6,31.7,10.6,0000.0,0003.17,0008.40,0002.15
2023-04-13 03:55:00,,0820.0,5.01,0.00,30.2,28.7,00.0,38.6,31.8,10.5,0000.0,0003.17,0008.13,0002.14
2023-04-13 03:56:00,,0820.2,5.00,0.00,30.2,28.7,00.0,38.6,31.8,10.4,0000.0,0003.17,0008.15,0002.14
2023-04-13 03:57:00,,0820.0,5.01,0.00,30.2,28.7,00.0,38.6,31.8,10.4,0000.0,0003.14,0008.14,0002.14
2023-04-13 03:58:00,,0820.0,4.99,0.00,30.2,28.7,00.0,38.6,31.8,10.5,0000.0,0003.17,0008.20,0002.14
2023-04-13 03:59:00,,0820.0,5.00,0.00,30.2,28.7,00.0,38.6,31.8,10.6,0000.0,0003.17,0008.03,0002.14
